MMS 4

Last updated on Tue Sep 16 2025 00:02:40 GMT+0000 (Coordinated Universal Time)

1 40485U 15011D 25258.58341435 -.00002335 00000+0 00000+0 0 9996 2 40485 67.4768 353.0911 8603943 161.6153 353.0212 0.28474589 1384
UTC large
Height (km)
Speed (km/s)
/
Latitude / Longitude
Inclination (degrees)
Orbital Period (minutes)
Azimuth
Elevation
Range (km)
Doppler Factor

Next 0 passes for location: London (51.5072 / 0.1276)

Sorry there are no passes over London.